TimePST,TemperatureF,Dew PointF,Humidity,Sea Level PressureIn,VisibilityMPH,Wind Direction,Wind SpeedMPH,Gust SpeedMPH,PrecipitationIn,Events,Conditions,WindDirDegrees,DateUTC
12:15 AM,39.2,39.2,100,30.03,2.0,Calm,Calm,-,N/A,,Clear,0,2013-11-28 08:15:00
12:35 AM,37.4,37.4,100,30.03,5.0,Calm,Calm,-,N/A,,Clear,0,2013-11-28 08:35:00
12:55 AM,37.4,37.4,100,30.03,5.0,Calm,Calm,-,N/A,,Clear,0,2013-11-28 08:55:00
1:15 AM,37.4,37.4,100,30.03,5.0,Calm,Calm,-,N/A,,Clear,0,2013-11-28 09:15:00
1:35 AM,37.4,37.4,100,30.02,4.0,Calm,Calm,-,N/A,,Clear,0,2013-11-28 09:35:00
1:55 AM,37.4,37.4,100,30.03,6.0,Calm,Calm,-,N/A,,Clear,0,2013-11-28 09:55:00
2:15 AM,37.4,37.4,100,30.03,7.0,Calm,Calm,-,N/A,,Clear,0,2013-11-28 10:15:00
2:35 AM,37.4,37.4,100,30.03,7.0,Calm,Calm,-,N/A,,Clear,0,2013-11-28 10:35:00
2:55 AM,37.4,37.4,100,30.03,6.0,South,3.5,-,N/A,,Clear,180,2013-11-28 10:55:00
3:15 AM,37.4,37.4,100,30.04,6.0,Calm,Calm,-,N/A,,Clear,0,2013-11-28 11:15:00
3:35 AM,37.4,37.4,100,30.04,8.0,Calm,Calm,-,N/A,,Clear,0,2013-11-28 11:35:00
3:55 AM,37.4,37.4,100,30.04,7.0,Calm,Calm,-,N/A,,Clear,0,2013-11-28 11:55:00
4:15 AM,37.4,37.4,100,30.04,7.0,Calm,Calm,-,N/A,,Clear,0,2013-11-28 12:15:00
4:35 AM,37.4,37.4,100,30.04,7.0,Calm,Calm,-,N/A,,Clear,0,2013-11-28 12:35:00
4:55 AM,37.4,37.4,100,30.04,5.0,Calm,Calm,-,N/A,,Clear,0,2013-11-28 12:55:00
5:15 AM,37.4,37.4,100,30.04,5.0,Calm,Calm,-,N/A,,Clear,0,2013-11-28 13:15:00
5:35 AM,37.4,37.4,100,30.05,5.0,Calm,Calm,-,N/A,,Clear,0,2013-11-28 13:35:00
5:55 AM,35.6,35.6,100,30.05,3.0,Calm,Calm,-,N/A,,Clear,0,2013-11-28 13:55:00
6:15 AM,35.6,35.6,100,30.05,5.0,Calm,Calm,-,N/A,,Clear,0,2013-11-28 14:15:00
6:35 AM,35.6,35.6,100,30.05,2.5,Calm,Calm,-,N/A,,Clear,0,2013-11-28 14:35:00
6:55 AM,35.6,35.6,100,30.06,5.0,Calm,Calm,-,N/A,,Clear,0,2013-11-28 14:55:00
7:15 AM,35.6,35.6,100,30.05,5.0,Calm,Calm,-,N/A,,Clear,0,2013-11-28 15:15:00
7:35 AM,35.6,35.6,100,30.05,3.0,Calm,Calm,-,N/A,,Clear,0,2013-11-28 15:35:00
7:55 AM,35.6,35.6,100,30.07,4.0,Calm,Calm,-,N/A,,Clear,0,2013-11-28 15:55:00
8:15 AM,35.6,35.6,100,30.08,3.0,Calm,Calm,-,N/A,,Clear,0,2013-11-28 16:15:00
8:35 AM,35.6,35.6,100,30.08,4.0,Calm,Calm,-,N/A,,Clear,0,2013-11-28 16:35:00
8:55 AM,37.4,37.4,100,30.08,3.0,Calm,Calm,-,N/A,,Clear,0,2013-11-28 16:55:00
9:15 AM,37.4,37.4,100,30.08,5.0,Calm,Calm,-,N/A,,Clear,0,2013-11-28 17:15:00
9:35 AM,37.4,37.4,100,30.08,3.0,Calm,Calm,-,N/A,,Clear,0,2013-11-28 17:35:00
9:55 AM,39.2,39.2,100,30.08,5.0,Calm,Calm,-,N/A,,Clear,0,2013-11-28 17:55:00
10:15 AM,41.0,41.0,100,30.08,9.0,Calm,Calm,-,N/A,,Clear,0,2013-11-28 18:15:00
10:35 AM,44.6,44.6,100,30.09,10.0,Calm,Calm,-,N/A,,Clear,0,2013-11-28 18:35:00
10:55 AM,44.6,44.6,100,30.10,10.0,Calm,Calm,-,N/A,,Clear,0,2013-11-28 18:55:00
11:15 AM,46.4,46.4,100,30.09,10.0,Calm,Calm,-,N/A,,Clear,0,2013-11-28 19:15:00
11:35 AM,46.4,46.4,100,30.09,10.0,North,3.5,-,N/A,,Clear,10,2013-11-28 19:35:00
12:00 PM,46.4,46.4,100,30.09,9.0,Calm,Calm,-,N/A,,Clear,0,2013-11-28 20:00:00
12:15 PM,46.4,46.4,100,30.09,10.0,Calm,Calm,-,N/A,,Clear,0,2013-11-28 20:15:00
12:35 PM,46.4,46.4,100,30.09,10.0,Calm,Calm,-,N/A,,Clear,0,2013-11-28 20:35:00
12:55 PM,46.4,46.4,100,30.08,10.0,Calm,Calm,-,N/A,,Clear,0,2013-11-28 20:55:00
1:15 PM,48.2,48.2,100,30.08,10.0,Calm,Calm,-,N/A,,Scattered Clouds,0,2013-11-28 21:15:00
1:35 PM,48.2,48.2,100,30.09,10.0,Calm,Calm,-,N/A,,Mostly Cloudy,0,2013-11-28 21:35:00
1:55 PM,48.2,48.2,100,30.09,10.0,Calm,Calm,-,N/A,,Overcast,0,2013-11-28 21:55:00
2:15 PM,46.4,46.4,100,30.09,10.0,Calm,Calm,-,N/A,,Mostly Cloudy,0,2013-11-28 22:15:00
2:35 PM,46.4,46.4,100,30.08,10.0,Calm,Calm,-,N/A,,Mostly Cloudy,0,2013-11-28 22:35:00
2:55 PM,46.4,46.4,100,30.08,10.0,Calm,Calm,-,N/A,,Mostly Cloudy,0,2013-11-28 22:55:00
3:15 PM,46.4,46.4,100,30.09,10.0,Calm,Calm,-,N/A,,Mostly Cloudy,0,2013-11-28 23:15:00
3:35 PM,46.4,46.4,100,30.09,10.0,Calm,Calm,-,N/A,,Overcast,0,2013-11-28 23:35:00
3:55 PM,46.4,46.4,100,30.09,10.0,Calm,Calm,-,N/A,,Partly Cloudy,0,2013-11-28 23:55:00
4:15 PM,44.6,44.6,100,30.09,9.0,Calm,Calm,-,N/A,,Partly Cloudy,0,2013-11-29 00:15:00
4:35 PM,44.6,44.6,100,30.10,10.0,Calm,Calm,-,N/A,,Scattered Clouds,0,2013-11-29 00:35:00
4:55 PM,44.6,44.6,100,30.10,10.0,Calm,Calm,-,N/A,,Mostly Cloudy,0,2013-11-29 00:55:00
5:15 PM,44.6,44.6,100,30.11,10.0,Calm,Calm,-,N/A,,Scattered Clouds,0,2013-11-29 01:15:00
5:35 PM,44.6,44.6,100,30.11,10.0,Calm,Calm,-,N/A,,Mostly Cloudy,0,2013-11-29 01:35:00
5:55 PM,44.6,44.6,100,30.11,10.0,Calm,Calm,-,N/A,,Mostly Cloudy,0,2013-11-29 01:55:00
6:15 PM,44.6,44.6,100,30.11,10.0,Calm,Calm,-,N/A,,Mostly Cloudy,0,2013-11-29 02:15:00
6:35 PM,44.6,44.6,100,30.12,9.0,Calm,Calm,-,N/A,,Mostly Cloudy,0,2013-11-29 02:35:00
6:55 PM,44.6,44.6,100,30.12,10.0,Calm,Calm,-,N/A,,Mostly Cloudy,0,2013-11-29 02:55:00
7:15 PM,44.6,44.6,100,30.12,10.0,Calm,Calm,-,N/A,Rain,Light Rain,0,2013-11-29 03:15:00
7:35 PM,44.6,44.6,100,30.12,7.0,Calm,Calm,-,N/A,Rain,Light Rain,0,2013-11-29 03:35:00
7:55 PM,44.6,44.6,100,30.12,10.0,Calm,Calm,-,N/A,,Overcast,0,2013-11-29 03:55:00
8:15 PM,44.6,44.6,100,30.12,10.0,Calm,Calm,-,N/A,,Overcast,0,2013-11-29 04:15:00
8:35 PM,44.6,44.6,100,30.12,9.0,Calm,Calm,-,N/A,,Overcast,0,2013-11-29 04:35:00
8:55 PM,44.6,44.6,100,30.12,10.0,Calm,Calm,-,N/A,,Overcast,0,2013-11-29 04:55:00
9:15 PM,44.6,44.6,100,30.12,5.0,Calm,Calm,-,N/A,Rain,Light Rain,0,2013-11-29 05:15:00
9:35 PM,44.6,44.6,100,30.13,10.0,Calm,Calm,-,N/A,,Overcast,0,2013-11-29 05:35:00
9:55 PM,44.6,44.6,100,30.14,10.0,Calm,Calm,-,N/A,,Overcast,0,2013-11-29 05:55:00
10:15 PM,44.6,44.6,100,30.14,10.0,Calm,Calm,-,N/A,,Overcast,0,2013-11-29 06:15:00
10:35 PM,44.6,44.6,100,30.15,8.0,Calm,Calm,-,N/A,,Overcast,0,2013-11-29 06:35:00
10:55 PM,44.6,44.6,100,30.15,8.0,Calm,Calm,-,N/A,,Overcast,0,2013-11-29 06:55:00
11:15 PM,44.6,44.6,100,30.15,3.0,Calm,Calm,-,N/A,Rain,Light Rain,0,2013-11-29 07:15:00
11:35 PM,44.6,44.6,100,30.15,10.0,Calm,Calm,-,N/A,,Overcast,0,2013-11-29 07:35:00
11:55 PM,44.6,44.6,100,30.16,10.0,Calm,Calm,-,N/A,,Overcast,0,2013-11-29 07:55:00